TimeEDT,TemperatureF,Dew PointF,Humidity,Sea Level PressureIn,VisibilityMPH,Wind Direction,Wind SpeedMPH,Gust SpeedMPH,PrecipitationIn,Events,Conditions,WindDirDegrees,DateUTC
12:51 AM,51.1,39.9,66,30.25,10.0,Calm,Calm,-,N/A,,Mostly Cloudy,0,2013-05-27 04:51:00
1:51 AM,51.1,42.1,71,30.25,10.0,Calm,Calm,-,N/A,,Mostly Cloudy,0,2013-05-27 05:51:00
2:51 AM,52.0,39.9,63,30.23,10.0,Calm,Calm,-,N/A,,Overcast,0,2013-05-27 06:51:00
3:51 AM,52.0,37.9,59,30.21,10.0,Calm,Calm,-,N/A,,Overcast,0,2013-05-27 07:51:00
4:51 AM,52.0,36.0,54,30.22,10.0,SE,4.6,-,N/A,,Overcast,130,2013-05-27 08:51:00
5:51 AM,52.0,34.0,50,30.22,10.0,Calm,Calm,-,N/A,,Overcast,0,2013-05-27 09:51:00
6:51 AM,52.0,35.1,53,30.24,10.0,ESE,5.8,-,N/A,,Mostly Cloudy,120,2013-05-27 10:51:00
7:51 AM,53.1,37.0,55,30.25,10.0,SSE,5.8,-,N/A,,Overcast,160,2013-05-27 11:51:00
8:51 AM,55.0,37.0,51,30.25,10.0,SSE,8.1,-,N/A,,Overcast,160,2013-05-27 12:51:00
9:51 AM,53.1,41.0,64,30.28,10.0,SE,6.9,-,0.01,Rain,Light Rain,140,2013-05-27 13:51:00
10:51 AM,59.0,45.0,60,30.25,10.0,SE,10.4,-,0.00,,Scattered Clouds,140,2013-05-27 14:51:00
11:51 AM,66.0,46.9,50,30.23,10.0,SSE,8.1,-,N/A,,Clear,150,2013-05-27 15:51:00
12:51 PM,69.1,48.9,49,30.19,10.0,SE,9.2,-,N/A,,Overcast,140,2013-05-27 16:51:00
1:51 PM,69.1,50.0,51,30.18,10.0,South,3.5,-,N/A,,Overcast,170,2013-05-27 17:51:00
2:51 PM,70.0,51.1,51,30.17,10.0,Variable,4.6,-,N/A,,Overcast,0,2013-05-27 18:51:00
3:51 PM,72.0,53.1,51,30.14,10.0,SE,8.1,-,N/A,,Mostly Cloudy,140,2013-05-27 19:51:00
4:51 PM,73.0,54.0,51,30.13,10.0,SSW,5.8,-,N/A,,Mostly Cloudy,200,2013-05-27 20:51:00
5:51 PM,72.0,53.1,51,30.12,10.0,SE,5.8,-,N/A,,Overcast,140,2013-05-27 21:51:00
6:51 PM,71.1,54.0,55,30.10,10.0,SE,6.9,-,N/A,,Scattered Clouds,140,2013-05-27 22:51:00
7:51 PM,70.0,55.0,59,30.10,10.0,SSE,6.9,-,N/A,,Partly Cloudy,160,2013-05-27 23:51:00
8:51 PM,68.0,55.0,63,30.11,10.0,SE,5.8,-,N/A,,Mostly Cloudy,140,2013-05-28 00:51:00
9:51 PM,64.9,55.9,73,30.13,10.0,SSE,8.1,-,N/A,,Clear,160,2013-05-28 01:51:00
10:51 PM,64.0,55.9,75,30.13,10.0,SSE,9.2,-,N/A,,Clear,160,2013-05-28 02:51:00
11:51 PM,64.9,55.0,70,30.12,10.0,SSE,9.2,-,N/A,,Partly Cloudy,150,2013-05-28 03:51:00